{"data":{"norad_id":57510,"epoch":"2026-09-20T13:39:52.533792Z","epoch_age_seconds":121651,"freshness":"FRESH","line1":"1 57510U 23113R   26263.56935803 -.00000168  00000+0  34366-5 0  9998","line2":"2 57510  43.0057 355.1534 0001568 264.5449  95.5224 15.27577204173377","mean_motion":15.27577204,"eccentricity":0.0001568,"inclination_deg":43.0057,"raan_deg":355.1534,"arg_perigee_deg":264.5449,"mean_anomaly_deg":95.5224,"bstar":3.4366e-6,"rev_number":17337,"period_min":94.266921254737,"perigee_km":481.98163298965,"apogee_km":484.13330357491,"semimajor_km":6861.1944682823,"source":"CELESTRAK","updated_at":"2026-09-21T09:00:33.635134Z"}}